Regional Weather Roundup
Issued by NWS State College, PA

Home | Current Version | Previous Version | Graphics & Text | Print | Product List | Glossary On
Versions: 1 2 3 4 5 6 7 8 9 10 11 12 13 14 15 16 17 18 19 20 21 22 23 24 25 26 27 28 29 30 31 32 33 34 35 36 37 38 39 40 41 42 43 44 45 46 47 48 49 50
000
ASUS41 KCTP 201010
RWRCTP

REGIONAL WEATHER ROUNDUP
NATIONAL WEATHER SERVICE STATE COLLEGE PA
600 AM EDT SAT SEP 20 2014

Note: "fair" indicates few or no clouds below 12,000 feet with no
significant weather and/or obstructions to visibility.

* = STATION THAT DOES NOT REPORT PRECIPITATION /E.G. RAIN...SNOW...ETC/
    THUNDER OR FOG.

PAZ002>004-007>009-013>016-020>023-029>032-201100-
WESTERN PENNSYLVANIA

CITY           SKY/WX    TMP DP  RH WIND       PRES   REMARKS
ERIE           PTCLDY    62  54  74 S14       30.06R
MEADVILLE      PTCLDY    58  53  84 S7        30.10S
FRANKLIN*      MOCLDY    55  52  88 S12       30.14S
NEW CASTLE     NOT AVBL
BEAVER COUNTY  NOT AVBL
BUTLER*        PTCLDY    57  52  82 SE6       30.16S
PITTSBURGH INT PTCLDY    57  54  89 S5        30.13S
PITTSBURGH     PTCLDY    59  52  77 S9        30.14R
INDIANA*       CLOUDY    61  55  82 S13       30.20S
LATROBE        MOCLDY    64  55  72 S7        30.16F
WASHINGTON CO* PTCLDY    57  54  88 S3        30.15S
$$

PAZ004>006-010>012-017>019-024>028-033>037-041-042-045-046-049>053-201100-
CENTRAL PENNSYLVANIA

CITY           SKY/WX    TMP DP  RH WIND       PRES   REMARKS
BRADFORD       CLOUDY    57  53  86 SE9       30.16S
DUBOIS         CLOUDY    58  54  86 S10       30.16S
CLEARFIELD     CLOUDY    56  55  97 CALM      30.20S
JOHNSTOWN      PTCLDY    57  53  86 S12       30.21S
ALTOONA        CLOUDY    61  57  87 S10G20    30.22F
STATE COLLEGE  CLOUDY    61  57  88 SW9       30.22S
WILLIAMSPORT   CLOUDY    61  55  81 S17G26    30.21S
SELINSGROVE    CLOUDY    62  56  80 S5        30.25S
FT INDIANTOWN  CLOUDY    58  58  99 NE3       30.28S
CAPITAL CITY   CLOUDY    60  55  83 E6        30.27S
HARRISBURG     CLOUDY    60  55  83 E5        30.27R
YORK           CLOUDY    58  57  97 CALM      30.27R FOG
$$

PAZ038>040-043-044-047-048-054-055-060>062-067>071-201100-
EASTERN PENNSYLVANIA

CITY           SKY/WX    TMP DP  RH WIND       PRES   REMARKS
SCRANTON       CLOUDY    58  52  80 VRB5      30.26F
MOUNT POCONO   CLOUDY    52  51  97 VRB5      30.30S FOG
ALLENTOWN      CLOUDY    59  52  77 CALM      30.30S
QUAKERTOWN*    PTSUNNY   55  54  94 SE3       30.31S
READING        CLOUDY    58  54  86 SW3       30.28S
LANCASTER      CLOUDY    56  54  93 NE6       30.28S FOG
COATESVILLE    PTSUNNY   55  55 100 CALM      30.30S FOG
POTTSTOWN      CLOUDY    56  53  90 NE3       30.31S
BLUE BELL      MOCLDY    54  54 100 CALM      30.30S
DOYLESTOWN     CLOUDY    54  53  97 NE5       30.30F
WILLOW GROVE   NOT AVBL
NORTH PHILA    MOCLDY    56  51  84 CALM      30.32S
PHILADELPHIA   MOCLDY    59  54  83 NE6       30.30S
$$



USA.gov is the U.S. government's official web portal to all federal, state and local government web resources and services.